This demonstration page uses our WeatherBlox Daily Observations layout. Learn more.

Left ArrowRight Arrow

39.92423, -83.80882

Hourly Observations for November 30, 2019

Temp ( °F °C ) Dew Point ( °F °C ) Humidity (%) Winds ( mph kmh ) Pressure ( in mb ) Visibility ( mi km ) Precip ( " mm )
12:56 am 00:56 Cloudy 37 2.8 33 0.6 86 86 ENE 5 7 30.15 1021 10 16 N/A
1:56 am 01:56 Mostly Cloudy 36 2.2 33 0.6 89 89 E 9 15 30.10 1019 10 16 N/A
2:56 am 02:56 Cloudy 37 2.8 33 0.6 86 86 ENE 5 7 30.13 1020 10 16 N/A
3:56 am 03:56 Cloudy with Light Rain 36 2.2 34 1.1 93 93 E 7 11 30.07 1018 9 14 0.00 0.00
4:56 am 04:56 Cloudy with Light Rain 36 2.2 35 1.7 97 97 E 7 11 30.06 1018 7 11 0.00 0.00
5:56 am 05:56 Cloudy with Light Rain 36 2.2 36 2.2 100 100 ESE 5 7 30.07 1018 7 11 0.01 0.25
6:56 am 06:56 Cloudy with Light Rain 36 2.2 36 2.2 100 100 ESE 7 11 30.06 1018 5 8 0.01 0.25
7:34 am 07:34 Cloudy with Light Rain 36 2 36 2 100 100 E 5 7 30.08 1019 5 8 0.00 0.00
7:43 am 07:43 Cloudy with Light Rain 36 2 36 2 100 100 E 6 9 30.07 1018 3 5 0.00 0.00
7:56 am 07:56 Cloudy with Light Rain 36 2.2 36 2.2 100 100 E 8 13 30.06 1018 3 5 0.00 0.00
8:56 am 08:56 Cloudy with Light Rain 36 2.2 36 2.2 100 100 E 14 22 30.01 1016 3 5 0.00 0.00
9:56 am 09:56 Cloudy with Mist and Fog 37 2.8 36 2.2 96 96 ESE 13 20 30.01 1016 5 8 0.00 0.00
12:56 pm 12:56 Cloudy with Light Rain 38 3.3 38 3.3 100 100 E 15 24 29.91 1013 2 2 0.01 0.25
1:22 pm 13:22 Cloudy with Light Rain 37 3 37 3 100 100 E 14 22 29.92 1013 3 5 0.00 0.00
1:42 pm 13:42 Cloudy with Light Rain 37 3 37 3 100 100 E 14 22 29.90 1013 3 4 0.00 0.00
1:56 pm 13:56 Cloudy with Light Rain 38 3.3 38 3.3 100 100 E 16 26 29.89 1012 3 4 0.00 0.00
2:05 pm 14:05 Cloudy with Light Rain 37 3 37 3 100 100 E 12 19 29.92 1013 3 5 0.00 0.00
2:56 pm 14:56 Cloudy with Light Rain 38 3.3 38 3.3 100 100 E 12 19 29.88 1012 4 6 0.01 0.25
3:24 pm 15:24 Cloudy with Rain 37 3 37 3 100 100 E 12 19 29.91 1013 2 3 0.05 1.27
3:34 pm 15:34 Cloudy with Rain 37 3 37 3 100 100 E 10 17 29.90 1013 2 3 0.09 2.29
3:42 pm 15:42 Cloudy with Light Rain 37 3 37 3 100 100 E 12 19 29.89 1012 2 3 0.10 2.54
3:52 pm 15:52 Cloudy with Light Rain 37 3 37 3 100 100 E 15 24 29.87 1012 3 4 0.11 2.79
3:56 pm 15:56 Cloudy with Light Rain 38 3.3 38 3.3 100 100 E 15 24 29.85 1011 2 3 0.11 2.79
4:23 pm 16:23 Cloudy with Light Rain 37 3 37 3 100 100 E 20 31 29.82 1010 3 5 0.01 0.25
4:56 pm 16:56 Cloudy with Light Rain 38 3.3 38 3.3 100 100 ESE 32 52 29.68 1005 8 13 0.01 0.25
5:51 pm 17:51 Cloudy with Rain 37 3 37 3 100 100 ESE 9 15 29.83 1010 7 11 0.05 1.27
5:56 pm 17:56 Cloudy with Light Rain 38 3.3 38 3.3 100 100 E 10 17 29.81 1010 7 11 0.05 1.27
6:54 pm 18:54 Cloudy 39 4 39 4 100 100 ESE 16 26 29.73 1007 8 13 0.00 0.00
6:56 pm 18:56 Cloudy 39 3.9 39 3.9 100 100 ESE 16 26 29.72 1006 8 13 0.00 0.00
7:56 pm 19:56 Cloudy with Light Rain 39 3.9 39 3.9 100 100 ESE 15 24 29.71 1006 6 10 0.02 0.51
8:56 pm 20:56 Cloudy 39 3.9 39 3.9 100 100 ESE 14 22 29.73 1007 7 11 0.00 0.00
9:37 pm 21:37 Cloudy with Light Rain 39 4 39 4 100 100 ESE 15 24 29.69 1005 3 4 0.01 0.25
9:49 pm 21:49 Cloudy with Light Rain 39 4 39 4 100 100 ESE 13 20 29.69 1005 3 5 0.01 0.25
9:56 pm 21:56 Cloudy with Light Rain 39 3.9 39 3.9 100 100 ESE 13 20 29.67 1005 4 6 0.01 0.25
10:27 pm 22:27 Cloudy with Light Rain 39 4 39 4 100 100 ESE 14 22 29.66 1004 3 4 0.00 0.00
10:56 pm 22:56 Cloudy with Mist and Fog 40 4.4 40 4.4 100 100 ESE 13 20 29.63 1003 2 2 0.00 0.00
11:23 pm 23:23 Cloudy with Light Rain 39 4 39 4 100 100 ESE 10 17 29.63 1003 1 2 0.00 0.00
11:42 pm 23:42 Cloudy with Mist and Fog 39 4 39 4 100 100 ESE 14 22 29.62 1003 1 1 0.00 0.00
11:56 pm 23:56 Cloudy with Light Rain 40 4.4 40 4.4 100 100 ESE 16 26 29.59 1002 1 1 0.00 0.00

Powered by AerisWeather